OREUM

operational
NORAD ID: 59117 Int'l Des: 2024-043 Owner: CONTEC Country: KR
LEOCIRCULARRETROGRADESSO

Über OREUM

Beschreibung wird geladen...

Live-Position

3D-Globus wird geladen...

Nächste Überflüge

Höhenverlauf

Altitude vs Time

uPlot chart will show altitude changes over time

Zweizeiliger Elementsatz

1 59117U 24043V 26063.11487690 .00017196 00000-0 51679-3 0 9994
2 59117 97.5467 201.4378 0009875 246.3123 113.7084 15.34433095111125
Epoch: 4. März 2026 • Age: 13 hours

Aktueller Status

Höhe 463.0 km
Geschwindigkeit 7.64 km/s
Subsatellitenpunkt -4.46°S, 24.74°E
Startdatum 4. März 2024
Alter 1.9 years
Typ other

Technische Details

Klassifizierung Payload
Masse 20.00 kg
Trockenmasse 20.00 kg
Gesamtmasse 20.00 kg
Länge 0.30 m
Durchmesser 0.20 m
Spannweite 0.30 m
Form Box
Hersteller CONTEC
Bus-Typ Cubesat 16U
Phasenstatus In Orbit
Besitzer/Staat CONTEC/KR

Große Konstellationen

Loading constellations...